THOR ABLESTAR DEB, 470

Orbit data source: Space-Track

THOR ABLESTAR DEB, 470 is space debris in LEO originally from a launch on Thu, 29 Jun 1961 UTC launched from the Air Force Eastern Test Range (AFETR). Debris objects in space refer to the collection of defunct objects orbiting the Earth. Examples of debris include non-operational satellites, rocket bodies, and fragments generated from explosions, collisions, or faulty payload assembly.

Loading next visibility...
Identifier
470, 1961-015FG
Orbit
LEO
Country
Flag of USUS
Related business
Manufacturer
Unknown
Mission
Spacecraft
Bus & Motor
Unknown
Mass
Unknown
Launch date (UTC)
1961-06-29 (64 years ago)
Launch vehicle
Unknown
Launch site
Air Force Eastern Test Range (AFETR)
Object type
Payload
Rocket body
Debris
Shape & HBR
Unknown shape, 0.2 m
Radar Cross Section
Small (<0.1 m²)

Expand to show TLE details & history
Last TLE update: 20 hours ago

TLE from 20 hours ago
0 THOR ABLESTAR DEB
1 00470U 61015FG  25302.93594151  .00000830  00000-0  51986-3 0  9996
2 00470  66.2284 146.3983 0059050 108.7549 251.9954 14.08927940279959
Epoch: 2025-10-29T22:27Z
TLE epoch observation values (Epoch: 2025-10-29T22:27:45.346Z)
Latitude
-0.00004°
Longitude
130.95741°
Altitude
878.538 km
Speed
7.407 km/s
True Right ascension
09h 45m 35s
True Declination
0° 00' 00"
Sunlit
Object was in daylight at epoch
Visualization orbit readout
Latitude
Unknown
Longitude
Unknown
Altitude
Unknown
Speed
Unknown
Apparent Right ascension
Unknown
Apparent Declination
Unknown
Sunlit
N/A
Visualization observer readout
Local Sidereal Time
13:53:14
Azimuth
Unknown
Elevation
Unknown
Doppler factor
Unknown
Orbital elements
Apogee altitude
904.239 km
Perigee altitude
818.739 km
Semi-major axis
7,239.626 km
Eccentricity
0.00591
Inclination
66.2284°
RAAN
146.3983°
Arg. of periapsis
108.7549°
True anomaly
251.35335°
Mean anomaly
251.9954°
Eccentric anomaly
251.67423°
Mean motion
3.52346 °/min
Orbital period
102.17 mins
BSTAR
0.00051986
Loading maneuver chart data...
Computing Atmospheric mass density...

Documentation

Showing up to 5 results
|